Terug naar catalogus

PEGASUS DEB

ActiefPO
NORAD 39913·DEBRIS·🇺🇸 United States

Gelanceerd May 19, 1994 vanaf Vandenberg Space Force Base

Loading…

Volgende Passages (komende 24 uur)

TLE

VersSource: Space-Track

Epoch: Sep 14, 2026, 03:38 UTC

1 39913U 94029AFL 26257.15198024  .00000888  00000-0  27049-3 0  9990
2 39913  81.5678  43.6765 0509185  51.4311 313.1337 13.85662445127922

Volg PEGASUS DEB in realtime met AllMySat

Download on the App Store